Weather observations for the past three days for
Clinton, Clinton-Sherman Airport
Imperial (Metric)
Date Time (cdt) Wind (mph) Vis. (mi.) Weather Sky Cond. Temperature (ºF) Relative Humidity Wind Chill (°F) Heat Index (°F) Pressure Precipitation (in)
Air Dwpt 6 hour altimeter (in) sea level (mb) 1 hr 3 hr 6 hr
Max. Min.
31 01:53 S 20 10.00 Fair CLR 82.9 53.1 36% 82 29.96 1011.4
31 00:53 S 20 10.00 Fair CLR 84 53.1 99 84 34% 83 29.96 1011.3
30 23:53 S 21 10.00 Fair and Breezy CLR 87.1 54 32% 85 29.95 1011.0
30 22:53 SE 14 10.00 Fair CLR 88 55 33% 86 29.95 1010.9
30 21:53 S 13 10.00 Fair CLR 89.1 55 31% 87 29.93 1010.5
30 20:53 SE 14 10.00 Fair CLR 91 55.9 31% 89 29.92 1009.9
30 19:53 S 13 10.00 Fair CLR 95 54 25% 93 29.9 1009.4
30 17:53 S 20 G 30 10.00 Fair CLR 100.9 57 23% 100 29.89 1009.0
30 16:53 S 21 G 35 10.00 Fair and Breezy CLR 100.9 57.9 24% 101 29.89 1009.1
30 15:53 S 22 G 32 10.00 Fair and Breezy CLR 102 60.1 25% 103 29.91 1009.7
30 14:53 S 13 G 29 10.00 Fair CLR 100.9 61 27% 102 29.94 1010.5
30 13:53 S 20 G 30 10.00 Fair CLR 99 61 29% 100 29.96 1011.1
30 12:53 S 18 G 30 10.00 Fair CLR 98.1 62.1 98.1 78.1 31% 99 29.97 1011.7
30 11:53 SW 20 G 32 10.00 Fair CLR 93.9 62.1 35% 95 30 1012.6
30 10:53 SW 21 G 33 10.00 Fair and Breezy CLR 91.9 62.1 37% 93 30 1012.7
30 09:53 S 25 G 33 10.00 Fair and Breezy CLR 89.1 62.1 41% 89 30 1012.7
30 08:53 S 24 G 29 10.00 Fair and Breezy CLR 84 62.1 48% 85 29.99 1012.6
30 07:53 S 18 10.00 Fair CLR 80.1 61 52% 81 29.98 1012.2
30 06:53 S 17 10.00 Fair CLR 79 60.1 84.9 79 52% 80 29.97 1011.7
30 05:53 S 16 10.00 Fair CLR 79 59 50% 80 29.96 1011.4
30 04:53 S 13 10.00 Fair CLR 79 57.9 49% 80 29.96 1011.3
30 03:53 Calm 10.00 Fair CLR 81 57 44% 81 29.95 1011.1
30 02:53 Calm 10.00 Fair CLR 82 57 43% 82 29.96 1011.3
30 01:53 S 20 10.00 Fair CLR 84 57 40% 83 29.97 1011.6
30 00:53 S 22 10.00 Fair and Breezy CLR 84.9 55.9 99 84.9 37% 84 29.97 1011.5
29 23:53 S 17 10.00 Fair CLR 86 54 33% 84 29.97 1011.6
29 22:53 S 17 10.00 Fair CLR 88 52 29% 86 29.97 1011.6
29 21:53 S 15 10.00 Fair CLR 89.1 52 28% 87 29.95 1011.2
29 20:53 S 14 10.00 Fair CLR 91 53.1 27% 89 29.94 1010.7
29 19:53 S 17 10.00 Fair CLR 95 54 25% 93 29.92 1010.1
29 18:53 S 20 G 26 10.00 Fair CLR 99 53.1 102.9 98.1 21% 97 29.92 1010.1
29 17:53 S 17 G 35 10.00 Fair CLR 100.9 54 21% 99 29.92 1010.2
29 16:53 S 16 G 33 10.00 Fair CLR 102.9 55 20% 102 29.94 1010.7
29 15:53 S 17 G 28 10.00 Fair CLR 102 54 20% 100 29.97 1011.8
29 14:53 S 21 G 33 10.00 Fair and Breezy CLR 100 55 22% 98 29.99 1012.5
29 13:53 S 17 G 29 10.00 Fair CLR 100 57 24% 99 30.01 1013.2
29 12:53 S 17 G 38 10.00 Fair CLR 98.1 59 98.1 73.9 27% 98 30.04 1014.2
29 11:53 S 22 G 32 10.00 Fair and Breezy CLR 95 59 30% 94 30.06 1014.8
29 10:53 SW 22 G 31 10.00 Fair and Breezy CLR 93 61 34% 93 30.06 1014.7
29 09:53 S 16 10.00 Fair CLR 89.1 61 39% 89 30.07 1015.2
29 08:53 S 16 10.00 Fair CLR 82 57.9 44% 82 30.08 1015.7
29 07:53 S 13 10.00 Fair CLR 77 55.9 48% 79 30.08 1015.6
29 06:53 S 10 10.00 Fair CLR 75 55.9 82.9 73.9 52% 78 30.06 1015.1
29 05:53 S 12 10.00 Fair CLR 75.9 55 48% 78 30.06 1014.8
29 04:53 S 12 10.00 Fair CLR 75.9 54 47% 78 30.06 1015.0
29 03:53 S 10 10.00 Fair CLR 75 52 45% 78 30.06 1015.0
29 02:53 SE 8 10.00 Fair CLR 78.1 52 40% 79 30.07 1015.1
29 01:53 SE 12 10.00 Fair CLR 81 53.1 38% 80 30.07 1015.2
29 00:53 SE 14 10.00 Fair CLR 82.9 50 97 82.9 32% 81 30.06 1015.0
28 23:53 SE 13 10.00 Fair CLR 84 50 31% 82 30.07 1015.1
28 22:53 SE 14 10.00 Fair CLR 86 51.1 30% 84 30.07 1015.2
28 21:53 S 6 10.00 Fair CLR 84 53.1 34% 83 30.05 1014.8
28 20:53 S 7 10.00 Fair CLR 87.1 53.1 31% 85 30.02 1013.9
28 19:53 S 8 10.00 Fair CLR 93 52 25% 90 30.01 1013.4
28 18:53 S 8 10.00 Fair CLR 97 53.1 99 91.9 23% 95 30.01 1013.6
28 17:53 SW 7 10.00 Fair CLR 96.1 54 24% 94 30.02 1013.5
28 16:53 S 12 10.00 Partly Cloudy SCT095 98.1 55 24% 96 30.03 1013.9
28 15:53 Calm 10.00 A Few Clouds FEW090 96.1 55 25% 94 30.06 1014.9
28 14:53 Vrbl 5 10.00 A Few Clouds FEW085 96.1 57 27% 95 30.09 1015.9
28 13:53 Vrbl 6 10.00 Fair CLR 95 57 28% 94 30.11 1016.6
28 12:53 S 6 10.00 Fair CLR 93.9 59 93.9 69.1 31% 93 30.14 1017.8
28 11:53 S 7 10.00 Fair CLR 91.9 60.1 34% 92 30.16 1018.4
28 10:53 S 9 10.00 Fair CLR 88 60.1 39% 88 30.16 1018.4
28 09:53 S 7 10.00 Fair CLR 84.9 60.1 43% 85 30.17 1018.8
28 08:53 SE 6 10.00 Fair CLR 80.1 62.1 54% 81 30.16 1018.5
28 07:53 S 3 10.00 Fair CLR 73 62.1 69% 30.15 1018.2
28 06:53 Calm 10.00 Fair CLR 71.1 61 80.1 71.1 71% 30.14 1017.8
28 05:53 E 7 10.00 Fair CLR 75 61 62% 77 30.13 1017.3
28 04:53 SE 7 10.00 Fair CLR 75.9 62.1 62% 78 30.12 1017.2
28 03:53 SE 6 10.00 Fair CLR 75 62.1 64% 77 30.11 1016.9
28 02:53 SE 7 10.00 Fair CLR 75.9 61 60% 78 30.12 1017.0
Date Time (cdt) Wind (mph) Vis. (mi.) Weather Sky Cond. Air Dwpt Max. Min. Relative Humidity Wind Chill (°F) Heat Index (°F) altimeter (in) sea level (mb) 1 hr 3 hr 6 hr
6 hour
Temperature (ºF) Pressure Precipitation (in)